Gainesville, FL

5:01 PM EDT on August 22, 2017 (GMT -0400)
Gainesville Regional

Weather History for KGNV - May, 2013

Change the Weather History Date:

Thursday, May 23, 2013

  Actual Average Record
Temperature  
Mean Temperature 78 °F 76 °F  
Max Temperature 91 °F 88 °F 98 °F (1899)
Min Temperature 65 °F 64 °F 47 °F (1993)
Degree Days  
Heating Degree Days 0 0  
Month to date heating degree days 4 0  
Since 1 July heating degree days 1040 1214  
Cooling Degree Days 13 11  
Month to date cooling degree days 164 205  
Year to date cooling degree days 450 412  
Growing Degree Days 28 (Base 50)    
Moisture  
Dew Point 66 °F    
Average Humidity 69    
Maximum Humidity 100    
Minimum Humidity 38    
Precipitation  
Precipitation 0.00 in 0.09 in 2.08 in (1916)
Month to date precipitation 4.56 1.59  
Year to date precipitation 10.99 15.10  
Snow  
Snow 0.00 in 0.00 in 0.00 in ()
Month to date snowfall 0.0 0.0  
Since 1 July snowfall 0.0 0.0  
Snow Depth 0.00 in    
Sea Level Pressure  
Sea Level Pressure 29.97 in    
Wind  
Wind Speed 5 mph (WNW)    
Max Wind Speed 15 mph    
Max Gust Speed 23 mph    
Visibility 9 miles    
Events      
T = Trace of Precipitation, MM = Missing Value Source: NWS Daily Summary

Daily Weather History Graph

Daily Weather History Graph

Search for Another Location

Airport or City:

Trip Planner

Search our weather history database for the weather conditions in past years. The results will help you decide how hot, cold, wet, or windy it might be!

Date:

Astronomy

May. 23, 2013 Rise Set
Actual Time 6:31 AM EDT 8:20 PM EDT
Civil Twilight 6:05 AM EDT 8:46 PM EDT
Nautical Twilight 5:33 AM EDT 9:18 PM EDT
Astronomical Twilight 4:59 AM EDT 9:52 PM EDT
Moon 6:56 PM EDT (5/23) 5:08 AM EDT (5/23)
Length of Visible Light 14h 41m
Length of Day
13h 48m
Waxing Gibbous, 97% of the Moon is Illuminated
May 23
Waxing Gibbous
May 25
Full
May 31
Last Quarter
Jun 8
New
Jun 16
First Quarter

Hourly Weather History & Observations

Time (EDT) Temp. Heat Index Dew Point Humidity Pressure Visibility Wind Dir Wind Speed Gust Speed Precip Events Conditions
12:53 AM 70.0 °F - 66.9 °F 90% 29.95 in 10.0 mi Calm Calm - N/A   Clear
1:53 AM 68.0 °F - 66.0 °F 93% 29.95 in 10.0 mi North - - N/A   Clear
2:53 AM 66.9 °F - 66.0 °F 97% 29.95 in 10.0 mi North - - N/A   Partly Cloudy
3:23 AM 66.2 °F - 64.4 °F 94% 29.96 in 1.0 mi North - - N/A   Mist
3:34 AM 66.2 °F - 64.4 °F 94% 29.96 in 4.0 mi North - - N/A   Mostly Cloudy
3:40 AM 66.2 °F - 64.4 °F 94% 29.96 in 1.5 mi North - - N/A   Mostly Cloudy
3:53 AM 66.0 °F - 64.9 °F 96% 29.96 in 1.2 mi North - - N/A   Overcast
3:56 AM 66.2 °F - 64.4 °F 94% 29.97 in 4.0 mi North - - N/A   Mostly Cloudy
4:10 AM 66.2 °F - 64.4 °F 94% 29.97 in 10.0 mi North - - N/A   Scattered Clouds
4:53 AM 68.0 °F - 64.9 °F 90% 29.97 in 10.0 mi Calm Calm - N/A   Clear
5:53 AM 66.0 °F - 64.0 °F 93% 29.98 in 10.0 mi Calm Calm - N/A   Scattered Clouds
6:53 AM 68.0 °F - 64.9 °F 90% 29.99 in 10.0 mi Calm Calm - N/A   Scattered Clouds
6:55 AM 69.8 °F - 66.2 °F 88% 30.00 in 10.0 mi NNW 11.5 mph - N/A   Mostly Cloudy
7:53 AM 72.0 °F - 68.0 °F 87% 29.99 in 10.0 mi Calm Calm - N/A   Scattered Clouds
8:53 AM 75.0 °F - 68.0 °F 79% 29.99 in 10.0 mi Calm Calm - N/A   Clear
9:53 AM 79.0 °F - 69.1 °F 72% 29.99 in 10.0 mi Calm Calm - N/A   Clear
10:53 AM 84.0 °F 86.5 °F 66.9 °F 56% 29.99 in 10.0 mi Calm Calm - N/A   Clear
11:53 AM 87.1 °F 89.2 °F 66.0 °F 49% 30.00 in 10.0 mi West 8.1 mph 16.1 mph N/A   Partly Cloudy
12:53 PM 88.0 °F 90.3 °F 66.0 °F 48% 29.99 in 10.0 mi NW 9.2 mph - N/A   Partly Cloudy
1:53 PM 87.1 °F 89.2 °F 66.0 °F 49% 29.98 in 10.0 mi NW 9.2 mph 23.0 mph N/A   Scattered Clouds
2:53 PM 90.0 °F 92.4 °F 66.0 °F 45% 29.96 in 10.0 mi West 9.2 mph - N/A   Partly Cloudy
3:53 PM 88.0 °F 89.6 °F 64.9 °F 46% 29.94 in 10.0 mi West 5.8 mph - N/A   Mostly Cloudy
4:53 PM 89.1 °F 90.0 °F 63.0 °F 42% 29.93 in 10.0 mi West 12.7 mph 19.6 mph N/A   Partly Cloudy
5:53 PM 90.0 °F 90.6 °F 63.0 °F 40% 29.92 in 10.0 mi WNW 11.5 mph - N/A   Partly Cloudy
6:53 PM 89.1 °F 89.0 °F 61.0 °F 39% 29.91 in 10.0 mi WNW 6.9 mph - N/A   Clear
7:53 PM 84.9 °F 85.9 °F 63.0 °F 48% 29.93 in 10.0 mi West 10.4 mph - N/A   Scattered Clouds
8:53 PM 82.0 °F 83.8 °F 64.9 °F 56% 29.95 in 10.0 mi West 8.1 mph - N/A   Clear
9:53 PM 79.0 °F - 66.9 °F 66% 29.98 in 10.0 mi WSW 8.1 mph - N/A   Clear
10:53 PM 75.0 °F - 68.0 °F 79% 30.00 in 10.0 mi West 5.8 mph - N/A   Clear
11:53 PM 73.9 °F - 69.1 °F 85% 30.00 in 10.0 mi West 5.8 mph - N/A   Clear